Temp
10 10 10 10 10 10 10 10 10 10 11 11 11 11 12 12 12 12 12 13 13 13 14 14 14 15 15 15 15 15 15 16 16 15 15 15 15 15 16 16 16 16 17 17 17 17 17 17 17 18 18 18 18 18 18 19 19 19 20 20 20 20 20 19 18 19 20 20 20 21 21 20 20 20 19 18 17 17 17 16 16 16 16 16 17
10 10 10 10 10 10 10 10 10 10 10 11 11 11 11 11 11 12 12 12 13 13 13 14 14 14 14 15 15 15 15 15 15 15 15 15 15 15 15 15 15 16 16 16 17 18 17 17 17 18 18 18 18 18 18 18 19 19 19 19 20 20 20 19 19 18 19 20 20 20 20 20 20 20 20 19 19 18 17 17 16 16 16 16 16
9 9 9 9 9 9 9 9 9 10 10 10 10 11 11 11 11 11 11 12 12 12 13 13 13 14 14 14 15 15 15 15 15 15 15 15 15 15 15 15 15 15 15 16 16 17 17 17 17 18 18 18 18 18 18 18 18 19 19 19 19 19 20 20 19 18 18 19 20 20 20 20 20 20 20 20 20 18 18 18 17 16 16 16 16
9 9 9 9 9 9 9 9 9 9 10 10 10 10 11 11 11 11 11 11 11 12 12 12 13 13 13 14 14 15 15 15 15 15 15 15 15 15 15 15 15 15 15 15 16 16 16 16 17 17 17 17 18 18 18 18 18 18 19 19 19 19 19 19 19 19 19 19 20 20 20 20 20 20 20 20 19 18 18 18 17 17 16 16 16
9 9 9 9 9 9 9 9 9 9 9 10 10 10 10 11 11 11 11 11 11 11 11 11 12 12 13 13 14 14 14 15 15 15 15 15 15 15 16 16 16 15 15 15 16 15 15 16 16 16 16 16 17 17 18 18 18 18 18 19 19 19 19 19 19 19 18 18 19 20 20 20 20 20 20 19 18 18 17 17 17 17 16 16 16
9 9 9 9 9 9 9 9 9 9 9 9 10 10 10 11 11 11 11 11 11 11 11 11 11 11 12 12 13 13 14 14 15 15 15 15 15 15 15 16 16 16 16 15 16 16 16 16 16 16 16 16 16 17 17 18 18 18 18 19 19 19 19 19 19 18 18 18 18 19 19 19 19 19 20 19 19 18 17 16 16 16 16 15 15
9 9 9 9 9 9 9 9 9 9 9 9 10 10 11 11 11 11 11 12 11 11 11 11 11 11 11 12 12 13 13 14 14 14 15 15 15 15 15 15 16 16 16 16 16 16 16 16 16 16 16 16 17 17 17 17 18 18 18 19 19 19 19 19 18 18 18 18 18 18 18 19 19 19 19 19 19 18 17 16 15 15 16 16 16
9 8 9 9 9 8 9 9 9 9 9 9 10 10 10 11 11 11 11 11 11 11 11 11 11 11 11 11 12 12 12 13 13 14 14 14 15 15 15 15 15 15 16 16 16 16 15 15 16 16 16 16 16 17 17 17 17 18 18 18 18 18 18 18 18 18 17 17 17 18 18 18 18 18 18 18 17 16 16 16 16 16 16 16 16
8 8 8 8 8 8 9 9 9 9 9 9 10 10 10 10 10 11 11 11 11 11 11 11 11 11 11 11 11 12 12 12 13 13 14 14 14 14 14 14 15 15 15 15 15 15 15 15 15 15 16 16 16 16 16 17 17 17 18 18 18 18 18 18 18 17 17 17 17 17 17 17 17 17 17 17 17 18 17 16 16 16 16 16 16
8 8 8 8 8 8 9 9 9 9 9 9 9 10 10 10 10 11 11 11 11 11 11 11 11 11 11 11 11 11 12 12 13 13 13 14 14 14 14 14 14 15 15 15 15 15 15 15 15 15 15 15 16 16 16 16 16 17 17 17 18 18 18 18 18 17 17 17 17 17 16 17 17 17 17 18 18 18 17 16 16 16 15 15 15
8 8 8 8 8 8 9 9 9 9 9 9 9 9 9 10 10 11 11 10 11 11 11 11 11 11 11 11 11 11 12 12 12 13 13 13 13 14 14 14 14 14 14 14 14 14 15 15 14 14 15 15 15 15 16 16 16 16 16 17 17 18 18 18 18 17 17 17 17 17 17 17 17 17 18 18 18 18 18 17 16 15 15 15 15
8 8 8 8 8 8 8 9 9 9 9 9 9 9 10 10 10 10 10 10 10 10 11 11 10 11 11 11 11 11 12 12 12 12 12 13 13 13 13 14 14 14 14 14 14 14 14 14 15 14 15 15 15 15 15 15 16 16 16 16 17 17 18 18 18 18 18 18 18 17 18 18 18 17 18 18 18 18 18 17 16 16 15 15 15
8 8 8 8 8 8 8 8 8 8 8 9 9 9 10 10 9 8 8 9 9 10 10 10 10 10 10 10 11 11 11 12 12 12 12 12 12 12 13 13 13 13 14 14 14 14 14 14 14 15 15 15 15 15 15 15 16 16 16 16 16 17 17 17 18 18 18 18 18 18 18 18 18 18 18 19 18 18 17 16 16 16 15 15 16
8 8 8 8 7 7 8 8 8 8 8 9 9 10 10 9 8 7 8 8 9 9 10 10 10 11 10 10 11 11 11 11 11 11 12 12 12 12 12 13 13 13 14 14 14 14 14 14 14 14 15 15 15 15 15 15 15 16 16 16 16 17 17 17 17 18 18 18 18 18 18 19 18 18 19 19 19 18 18 18 17 16 16 17 18
7 7 7 7 7 7 7 7 8 8 8 9 9 10 9 7 7 7 7 7 8 8 9 10 10 10 10 10 10 11 10 10 10 10 11 11 11 12 12 12 13 13 13 13 14 14 14 14 14 14 14 14 15 15 15 15 15 16 16 16 16 17 17 17 17 17 18 18 18 18 18 18 19 19 19 18 19 19 19 19 18 18 18 18 17
7 7 7 7 7 7 7 7 7 8 8 9 9 9 8 6 5 6 6 6 7 8 8 8 9 10 10 10 10 10 10 10 10 10 10 10 11 11 11 11 12 12 12 13 13 13 14 14 14 14 14 14 15 15 15 15 15 15 16 16 16 16 17 17 17 18 18 18 18 18 18 19 19 19 19 18 18 18 18 18 18 17 17 16 16
7 7 7 7 7 7 7 7 7 7 8 8 7 7 6 5 5 5 5 6 6 7 7 7 7 8 9 9 10 9 9 9 10 10 10 10 10 10 10 10 11 11 11 12 12 12 13 13 13 13 14 14 14 15 15 15 15 15 15 16 16 16 16 17 17 17 17 18 18 18 18 18 18 18 18 18 17 18 17 17 16 16 16 16 15
7 7 7 6 6 6 6 7 7 6 6 6 6 5 5 4 4 4 5 5 5 5 6 6 7 7 8 8 8 8 8 9 9 9 9 10 10 10 10 10 10 10 10 10 11 11 12 12 13 13 13 13 14 14 15 15 15 15 15 15 15 15 16 16 16 17 17 17 17 17 18 18 18 18 18 18 17 17 17 16 16 16 16 15 15
7 7 7 6 6 6 6 7 6 6 6 5 5 5 4 4 4 4 4 4 4 4 5 5 6 7 7 7 7 7 7 8 9 9 9 9 9 9 10 9 10 10 10 10 10 10 11 11 12 12 13 13 13 14 14 15 15 15 14 15 15 15 15 16 16 16 16 17 17 17 17 18 18 18 18 18 17 17 16 16 16 16 15 15 15
7 7 7 6 6 6 6 6 6 6 6 5 5 5 4 4 4 4 4 4 4 4 4 4 5 5 6 6 7 7 7 8 8 8 8 8 8 8 8 8 8 9 9 10 10 10 10 11 11 12 12 13 13 13 14 14 15 14 14 14 14 15 15 15 15 16 16 16 16 17 17 18 18 18 18 18 17 17 16 16 16 16 15 15 15
7 7 7 6 6 6 6 6 6 6 6 6 5 5 5 4 4 4 4 4 4 4 4 4 4 4 4 5 5 5 5 6 7 8 8 8 7 7 7 7 7 7 8 9 9 9 10 10 10 11 11 12 12 13 13 14 14 14 14 14 14 14 15 15 15 15 16 16 16 16 16 17 17 17 17 17 17 17 17 16 16 16 16 16 15
8 7 7 7 6 6 6 6 6 6 6 6 5 5 5 5 4 4 4 4 4 3 3 3 3 3 3 3 4 4 4 4 5 6 7 7 7 7 6 7 6 6 6 7 8 8 9 10 10 11 11 11 12 12 12 13 14 14 14 14 14 14 14 14 15 15 15 15 15 15 15 16 16 17 17 17 17 17 17 16 16 16 16 16 16
8 8 7 7 7 7 7 6 6 6 6 6 6 5 5 5 4 4 4 4 3 3 3 3 3 3 3 3 3 3 4 4 4 5 5 6 6 6 6 6 6 6 5 6 7 8 9 9 10 11 11 11 11 12 12 12 13 13 14 14 14 14 14 14 14 14 15 15 15 15 15 15 16 16 17 17 17 17 16 16 16 16 16 16 17
8 8 8 8 7 7 7 7 6 6 6 6 6 6 5 5 4 4 4 4 3 3 3 3 3 3 3 3 3 3 3 4 4 4 5 5 5 6 6 6 6 6 5 6 7 9 9 9 10 11 11 11 11 12 12 12 12 13 13 13 14 14 13 13 13 13 14 14 14 15 15 15 15 16 17 17 17 17 16 15 15 16 16 16 16
8 8 8 8 7 7 7 7 7 7 6 6 6 6 5 5 5 4 4 4 3 3 3 3 3 3 3 3 3 3 3 3 3 4 4 5 5 6 6 6 6 6 6 6 8 9 9 10 10 11 11 10 11 11 12 12 12 12 13 13 13 13 13 13 12 12 13 13 14 14 14 15 15 16 17 17 17 16 15 15 15 15 15 16 16
8 8 8 8 8 7 7 7 7 7 7 7 6 6 6 5 5 5 4 4 3 3 3 3 2 3 3 3 3 3 3 3 3 3 4 4 5 5 6 6 7 7 7 7 8 9 10 10 10 10 11 10 10 11 11 11 11 12 12 13 13 13 13 12 12 12 12 13 13 14 14 15 15 15 16 16 15 15 15 15 15 15 15 15 15
8 8 8 8 8 7 7 7 7 7 7 7 7 7 6 6 5 5 4 4 4 3 3 2 2 2 2 2 2 2 2 2 2 2 3 4 4 5 6 6 7 8 8 9 9 9 10 10 10 10 11 11 11 11 11 11 11 11 11 12 12 12 12 12 12 12 12 13 13 14 14 14 15 15 15 15 14 15 15 15 15 15 15 15 14
8 8 8 8 8 8 7 7 7 7 7 7 7 7 6 6 6 5 4 4 4 3 3 2 2 2 2 2 2 2 2 1 1 1 2 3 3 5 6 6 6 7 7 8 8 8 8 9 10 10 10 10 11 11 11 11 11 11 11 11 12 12 11 11 12 12 12 12 12 13 13 14 14 14 14 14 14 14 14 14 14 14 14 14 14
8 8 8 8 8 8 8 7 7 7 7 7 7 6 6 6 6 5 5 4 4 3 3 3 2 2 2 2 2 1 1 1 1 1 2 3 3 4 5 5 6 6 6 7 7 7 7 8 8 8 9 10 10 10 10 11 11 11 11 11 12 12 11 11 11 12 12 12 12 12 12 13 13 14 14 13 13 14 14 14 14 14 14 14 14
9 8 8 8 8 8 8 8 7 7 7 7 7 7 6 6 6 6 5 5 4 4 3 3 3 3 2 2 2 2 1 2 2 2 3 3 4 5 5 5 6 6 6 7 7 6 5 5 5 5 6 6 6 7 7 8 9 10 10 10 10 10 10 11 11 11 11 12 12 12 12 12 13 13 13 13 13 13 13 13 14 14 14 14 14
9 9 8 8 8 8 8 8 7 7 7 7 7 7 7 6 6 6 5 5 5 4 4 4 3 3 2 2 3 3 3 3 3 3 4 4 5 5 4 5 5 6 6 8 7 4 3 3 3 3 3 3 3 3 4 5 6 7 7 8 8 8 8 9 9 9 10 10 11 11 11 11 12 12 12 12 12 12 13 13 13 13 13 13 14
9 9 9 9 9 8 8 8 7 7 7 7 7 7 7 7 6 6 6 5 5 4 4 4 4 3 3 3 3 3 3 3 3 4 4 4 5 5 4 5 5 5 7 7 5 3 2 2 2 2 2 2 2 2 2 3 3 4 4 5 5 5 6 6 7 8 9 10 10 10 10 10 11 11 11 12 12 12 12 12 12 13 13 13 13
9 9 9 9 9 9 9 8 8 7 7 7 7 7 7 7 6 6 6 6 6 5 5 4 4 4 3 3 3 3 3 3 3 4 4 5 5 5 5 4 4 5 6 5 2 1 2 2 1 1 1 1 1 1 1 1 1 2 2 2 3 3 4 4 6 7 7 8 8 8 9 9 10 10 10 10 11 11 11 11 11 12 12 12 12
9 9 9 9 9 9 9 8 8 8 8 7 7 7 7 7 6 6 6 6 6 6 5 5 4 4 4 3 3 3 3 3 3 3 4 5 5 5 5 5 5 5 5 2 0 1 1 1 1 1 1 1 0 0 0 0 0 1 1 1 1 2 3 5 5 5 5 6 6 6 7 8 8 8 9 9 9 9 9 10 10 10 10 10 10
9 9 9 9 9 9 9 8 8 8 8 8 7 7 7 7 7 6 6 6 5 5 5 5 5 4 4 4 4 3 3 3 3 3 4 4 5 6 6 5 4 4 3 1 0 0 0 0 0 0 0 0 0 0 0 0 0 -0 0 0 1 1 3 4 4 4 4 5 5 5 5 6 7 7 7 8 7 7 7 7 7 7 8 8 8
9 9 9 9 9 9 9 8 8 8 8 8 8 7 7 7 7 7 6 6 5 5 5 5 5 4 4 4 4 4 4 3 3 3 3 3 4 5 4 2 0 0 0 -0 -0 -0 -0 -0 -0 -0 0 0 0 0 0 1 1 0 0 0 0 1 1 2 2 2 3 3 3 4 4 4 5 5 6 6 5 5 5 5 5 5 6 6 6
8 8 9 9 9 9 9 8 8 8 8 8 8 8 7 7 7 7 6 6 6 5 5 5 5 5 4 4 4 4 4 4 4 3 3 3 4 4 2 1 0 0 -0 -0 -0 -0 -0 -0 -0 -0 0 0 0 1 1 1 1 1 1 1 1 1 1 1 1 1 1 2 2 2 2 3 3 4 4 4 4 4 4 4 5 5 5 5 5
8 8 9 9 9 9 9 8 8 8 8 8 8 8 8 7 7 7 6 6 6 5 5 5 5 5 5 4 4 4 4 4 4 4 4 3 3 3 2 2 1 1 0 0 0 0 0 0 0 1 1 1 2 2 2 1 1 2 2 2 2 2 2 2 2 2 2 2 2 2 2 2 2 2 3 3 3 3 3 3 3 3 4 4 3
8 8 9 9 9 9 9 8 8 8 8 8 8 8 8 7 7 7 7 6 6 6 6 5 5 5 5 4 4 4 4 4 4 3 3 3 3 2 2 2 2 1 1 1 1 1 1 1 2 2 2 2 2 3 3 2 2 2 2 2 2 2 2 2 2 2 2 2 1 1 1 2 2 2 2 2 2 2 2 2 2 2 2 2 2
8 8 8 9 9 9 9 9 8 8 8 8 8 8 8 8 7 7 7 7 7 6 6 6 6 5 5 5 4 4 4 3 3 3 3 3 3 2 2 2 2 2 2 2 2 2 2 2 2 2 2 2 2 3 3 3 3 3 2 2 2 2 2 2 2 1 1 1 1 1 1 1 2 2 2 1 1 1 2 2 2 2 2 1 1
8 8 8 9 9 9 9 9 8 8 8 8 8 8 8 8 8 8 7 7 7 7 6 6 6 6 5 5 5 4 4 4 3 3 3 3 3 2 2 2 2 2 2 2 2 2 2 2 2 2 2 3 3 3 3 3 3 3 2 2 1 1 1 2 1 1 1 1 1 1 1 1 1 1 1 1 1 1 1 2 2 2 2 2 1
9 9 9 8 9 9 9 9 9 8 8 8 8 8 8 8 8 8 8 7 7 7 7 6 6 6 5 5 5 5 4 4 4 4 3 3 3 3 3 2 2 2 2 2 2 2 2 2 2 2 3 3 3 3 3 3 2 2 2 2 1 0 1 1 1 1 1 1 1 1 1 1 0 0 0 0 1 1 1 2 2 2 2 2 1
9 9 9 8 9 9 9 9 9 8 8 8 8 8 8 8 8 8 8 8 7 7 7 7 7 6 6 6 5 5 5 4 4 4 4 3 3 3 3 3 3 2 2 2 2 2 2 2 2 2 2 2 2 3 3 3 2 2 2 2 1 -0 -0 0 1 1 1 1 0 0 1 1 0 0 0 0 0 1 1 1 1 1 1 2 1
9 9 9 9 9 8 8 9 9 8 9 9 8 8 8 8 8 8 8 8 8 8 7 7 7 7 6 6 6 5 5 5 4 4 4 4 4 3 3 3 3 3 2 2 2 2 2 2 2 2 2 2 2 2 2 3 2 2 2 1 1 0 0 -0 -0 0 0 0 0 0 0 0 0 0 0 0 0 0 1 1 1 1 1 1 1
9 9 9 9 9 9 9 8 8 8 9 9 9 9 9 8 8 8 8 8 8 8 8 8 7 7 7 7 6 6 6 5 5 5 4 4 4 4 4 3 3 3 3 2 2 2 2 2 2 2 1 1 1 1 2 2 2 2 2 1 1 1 0 -0 -1 -1 -0 0 0 0 0 0 0 0 0 1 0 0 1 1 1 1 1 1 1
10 9 9 9 9 9 9 9 9 9 9 9 9 9 9 9 9 8 8 8 8 8 8 8 8 8 7 7 7 7 6 6 6 6 5 5 4 4 4 4 3 3 3 3 2 2 2 1 1 1 1 1 1 1 1 1 2 2 2 2 1 1 1 0 -1 -1 -0 -0 0 0 0 0 0 0 0 1 1 1 1 1 1 1 1 1 1
10 10 10 9 9 9 9 9 9 9 9 9 9 9 9 9 9 9 9 9 8 8 8 8 8 8 8 8 7 7 7 7 6 6 6 6 5 5 4 4 3 3 3 3 3 2 2 2 1 1 1 1 0 0 0 1 1 1 2 2 1 1 1 0 0 -0 -0 -1 -1 -0 -0 0 0 0 0 0 1 1 1 1 1 1 1 1 1
10 10 10 10 10 9 9 9 9 9 9 9 9 9 8 8 8 8 9 9 9 8 8 8 8 8 8 8 8 8 7 7 7 7 6 6 6 5 5 4 4 3 3 3 3 3 2 2 1 1 1 1 0 0 0 0 0 1 1 1 1 1 1 1 1 1 0 -0 -0 -1 -1 -0 -0 -0 -0 0 1 1 1 1 1 1 1 1 1
10 10 10 10 10 9 9 9 9 9 9 9 8 8 8 8 8 8 8 8 8 8 8 8 8 8 8 7 7 7 7 7 7 7 7 7 6 6 5 5 4 4 4 3 3 3 2 2 2 1 1 1 0 0 0 0 0 0 1 1 1 1 1 1 1 1 1 0 0 -0 -0 -0 -0 0 0 -0 0 1 1 1 1 1 1 1 1
11 10 10 10 10 10 10 9 9 9 9 8 8 8 8 8 8 8 7 8 8 8 8 8 8 8 7 7 7 7 7 7 7 7 7 7 7 6 6 5 5 5 4 4 4 3 3 2 2 2 1 1 1 1 0 0 0 0 0 1 1 1 1 1 1 1 1 1 1 -0 -1 -1 -0 -0 0 0 0 0 1 1 1 1 1 1 1
11 11 10 10 10 10 10 9 9 9 9 8 8 8 8 8 8 7 7 7 7 7 8 7 7 7 7 7 7 7 7 7 7 7 7 7 7 7 6 6 5 5 5 4 4 4 3 3 2 2 1 1 1 1 1 1 1 0 0 1 1 1 1 1 1 1 1 1 1 0 -0 -1 -1 -0 0 0 0 0 1 1 1 1 1 1 1
Height
801 800 798 797 796 794 793 793 792 791 790 789 790 790 790 791 790 791 791 791 791 791 792 792 791 791 792 792 793 793 793 794 794 795 796 797 797 798 799 800 801 801 802 803 803 804 805 805 806 808 810 811 812 813 814 816 817 817 817 818 818 819 820 820 819 819 819 821 822 823 824 825 825 826 827 828 829 830 830 831 833 834 835 836 837
800 799 798 796 795 794 793 792 791 790 789 788 788 788 788 788 788 788 788 789 789 789 789 790 790 790 790 790 791 792 792 793 793 794 795 795 796 796 797 798 798 799 799 800 800 800 801 802 804 806 807 808 809 810 811 812 814 814 814 815 815 816 817 817 816 816 816 817 818 819 820 821 822 823 824 825 826 827 828 829 830 830 831 833 834
799 798 797 795 794 793 792 791 790 789 789 788 787 786 786 786 786 786 786 786 787 787 787 788 788 789 789 789 790 790 791 792 792 793 793 794 794 794 795 795 796 796 797 796 797 797 799 800 801 803 805 805 806 807 808 809 810 811 811 812 812 813 814 814 814 813 813 814 815 815 816 818 819 820 821 822 823 825 825 826 827 828 828 829 830
798 797 796 794 793 792 791 790 789 788 788 787 786 785 785 784 784 784 784 784 784 785 785 786 786 787 787 787 788 788 789 790 791 791 791 791 792 792 792 793 793 793 793 793 794 795 797 798 798 800 802 803 803 804 805 806 807 807 808 809 810 810 812 812 812 812 811 811 811 811 812 814 815 817 818 820 821 822 823 824 825 825 826 827 827
797 795 794 793 792 791 790 789 788 787 786 786 785 784 784 783 783 782 782 782 782 783 783 784 784 784 785 785 785 786 787 787 788 788 788 788 789 789 789 790 790 790 791 791 792 793 795 795 796 798 800 800 800 801 802 803 804 805 805 806 806 807 809 810 810 810 811 810 809 809 810 810 812 814 815 817 818 819 820 821 822 823 824 825 825
796 795 794 792 791 790 788 787 787 786 785 784 784 783 783 782 781 780 780 780 780 781 781 781 782 782 782 782 782 783 784 784 785 785 785 785 786 786 787 787 787 788 788 789 790 791 792 793 794 795 797 797 798 799 800 801 802 802 803 803 803 804 805 806 807 807 808 807 807 808 807 807 809 810 812 813 815 815 817 818 819 820 822 823 823
796 794 793 792 790 789 787 786 786 785 784 783 782 782 781 781 780 779 779 778 778 778 778 779 779 779 779 779 779 780 781 781 782 782 783 783 784 784 784 785 785 785 786 787 788 789 790 790 791 792 794 795 795 796 797 799 799 800 800 801 801 802 802 802 803 804 804 804 805 805 805 805 806 807 808 810 811 812 813 815 816 818 819 820 820
796 794 793 791 790 789 787 786 785 784 783 782 782 781 780 779 779 777 777 776 776 776 776 776 776 776 776 776 777 777 778 779 779 780 781 781 782 782 782 783 783 783 784 785 786 787 788 788 789 790 791 792 792 793 794 795 797 797 798 799 799 800 799 800 800 800 801 801 801 802 802 802 803 804 806 807 808 808 809 811 812 813 814 815 815
795 794 792 791 790 789 787 786 785 784 783 782 781 780 779 778 777 776 775 774 773 773 773 773 773 773 773 774 774 775 775 776 777 778 779 779 780 780 780 781 781 782 782 783 784 785 786 786 786 787 788 789 790 790 791 792 794 794 795 796 797 797 797 797 797 797 798 798 798 799 800 799 800 801 802 803 803 804 805 807 808 809 810 811 812
795 794 792 791 790 789 787 786 785 784 783 782 781 780 779 777 776 775 774 773 772 771 770 770 771 771 771 772 772 772 773 774 774 775 776 777 777 778 778 778 779 780 780 780 781 782 783 784 784 785 786 786 786 787 788 789 790 791 792 793 794 794 794 794 794 794 795 795 795 796 796 796 796 797 798 799 800 801 802 803 804 805 808 809 808
796 794 792 791 790 788 787 786 785 784 783 782 781 780 779 777 775 774 773 772 771 769 768 768 768 769 769 770 770 771 771 771 772 773 773 774 775 775 776 776 777 777 778 778 779 780 781 781 782 782 782 783 783 783 784 785 786 787 788 789 790 791 791 791 791 791 792 792 791 792 792 791 792 794 795 796 798 799 799 799 801 802 804 805 804
796 794 793 791 790 788 787 786 785 784 783 782 781 780 779 777 775 773 772 771 770 768 767 767 767 767 768 768 768 769 769 769 770 770 771 772 772 773 773 774 774 775 775 776 776 777 778 778 778 779 779 780 780 780 781 781 782 783 784 785 786 787 787 787 787 787 788 788 788 787 787 787 788 791 792 794 795 796 796 797 798 798 800 800 800
797 795 793 792 790 788 787 786 785 784 783 782 781 780 778 777 775 773 772 770 769 768 767 766 766 766 766 766 767 767 767 768 768 768 769 769 770 771 771 771 772 773 773 773 774 774 774 775 775 775 776 777 777 778 778 778 778 779 780 781 782 782 782 782 783 783 784 784 784 783 783 783 784 786 787 790 792 793 793 794 794 795 796 796 795
797 796 794 792 791 789 787 786 785 784 783 782 781 780 778 777 775 773 772 770 769 767 766 765 765 764 764 765 765 765 766 766 766 766 767 767 768 768 769 769 770 770 770 771 771 771 771 772 772 772 773 773 774 775 775 775 776 776 776 777 777 777 777 777 778 778 779 779 778 778 779 780 780 781 783 785 787 788 789 790 791 792 792 791 791
797 796 794 793 791 790 788 787 786 785 784 782 781 780 778 777 775 774 772 771 769 768 766 765 764 764 763 763 763 764 765 765 764 764 764 765 765 766 766 767 767 767 767 767 768 768 768 768 768 769 769 770 771 772 772 772 773 773 772 772 772 772 772 772 773 773 773 774 774 774 774 775 776 777 779 781 782 784 785 786 787 788 788 789 790
797 796 795 793 792 790 789 788 787 786 784 783 782 780 779 777 776 774 773 772 770 768 767 766 765 764 764 763 763 763 763 763 763 763 763 763 763 763 764 764 764 764 764 764 764 764 765 765 765 765 765 766 767 768 769 769 769 769 768 768 768 767 767 767 768 769 769 769 770 770 770 771 772 774 775 776 778 780 782 783 784 785 786 787 788
798 796 795 793 792 791 789 788 787 786 785 784 782 781 779 778 776 775 774 773 771 769 768 767 766 765 764 763 763 763 763 762 762 762 762 762 762 762 762 762 762 761 761 761 761 761 761 761 761 761 761 761 762 763 764 765 765 764 764 764 763 763 762 762 764 764 764 765 765 766 767 767 768 769 771 773 774 776 778 779 780 782 783 785 785
798 796 795 794 792 791 790 789 788 787 786 784 783 782 781 779 777 776 775 773 772 770 769 768 767 766 765 764 764 764 763 762 762 761 761 761 760 760 760 759 759 758 758 758 757 757 757 757 757 757 757 757 758 759 760 760 760 759 760 760 759 758 758 759 760 760 760 760 760 761 762 762 763 765 766 768 770 772 773 774 775 777 779 780 780
798 796 795 794 793 792 791 790 789 788 786 785 784 783 782 781 779 777 776 774 773 772 771 769 768 767 766 765 764 763 763 762 762 761 760 760 759 758 758 757 756 755 755 754 753 753 752 752 752 752 752 752 753 754 755 755 755 754 755 756 754 753 754 756 757 755 755 754 755 756 756 757 758 760 761 763 765 766 768 769 772 773 774 774 774
798 797 796 795 794 792 791 790 790 789 788 787 785 784 783 781 780 778 777 776 775 773 772 771 769 768 767 766 764 763 762 762 761 760 760 759 758 757 756 755 754 753 752 751 749 749 748 747 747 747 747 748 748 749 749 750 750 750 751 751 749 749 752 754 753 751 750 750 750 751 752 753 754 755 756 758 760 761 763 765 766 767 768 768 768
799 798 796 795 794 793 792 791 790 790 789 788 786 785 783 782 780 779 778 777 775 774 773 772 771 769 768 766 765 764 763 762 761 760 759 758 757 755 754 753 752 751 749 747 746 745 744 744 743 743 743 744 744 744 744 745 745 745 745 745 745 747 749 750 748 747 747 746 746 747 748 749 750 751 752 753 754 755 757 759 760 761 761 761 762
799 798 797 796 795 794 793 792 791 790 790 789 787 786 785 783 781 780 778 777 775 774 773 772 771 770 769 767 766 764 764 762 761 759 758 757 756 755 753 752 751 749 746 744 742 741 740 740 740 740 740 739 739 740 740 740 740 739 739 739 741 744 746 745 745 744 744 743 743 744 744 745 745 746 748 748 749 750 751 753 755 756 757 758 758
800 799 798 797 796 795 794 793 792 791 791 789 788 787 786 784 782 780 779 777 775 774 773 772 771 770 769 767 766 764 763 762 760 759 757 756 755 754 752 751 749 748 745 741 739 737 736 735 735 735 736 735 735 735 735 735 735 734 734 736 738 740 741 741 741 741 740 740 740 740 740 741 742 742 743 744 745 745 746 748 750 752 753 754 754
800 799 798 797 797 796 795 794 793 792 791 790 789 788 787 785 783 781 780 778 777 775 774 773 772 770 769 767 765 764 762 760 759 758 756 754 753 751 750 748 747 745 743 739 736 733 732 731 731 731 730 730 730 730 730 730 730 730 730 732 733 735 736 736 737 738 738 737 736 736 736 737 738 738 739 740 741 741 742 743 746 747 749 749 750
800 799 798 798 797 796 795 795 793 792 792 790 789 788 787 786 784 783 781 780 778 777 776 774 773 771 770 768 765 763 762 760 758 756 754 752 751 749 747 745 743 741 739 735 732 730 728 728 727 726 725 725 725 725 725 725 726 726 727 728 729 730 730 731 732 734 734 733 732 732 733 733 734 734 735 737 738 738 738 739 741 742 744 745 746
800 800 799 798 797 796 795 794 794 793 792 791 790 789 788 787 785 784 783 781 780 779 777 776 774 773 771 769 767 764 762 759 757 755 753 751 749 746 744 742 739 737 734 730 728 726 725 724 724 723 722 721 721 721 721 722 723 723 724 724 725 725 726 726 728 729 729 729 729 729 729 730 731 731 733 734 734 734 734 735 736 737 739 740 740
801 800 799 798 797 796 795 794 794 793 792 791 790 789 788 788 786 785 784 783 782 780 779 778 776 775 773 771 768 766 763 761 758 755 753 751 748 745 743 740 736 732 729 725 723 722 721 721 721 721 720 718 717 717 717 718 720 720 721 721 721 721 722 722 723 724 724 724 725 725 726 727 727 728 729 730 731 731 732 732 733 733 734 735 735
801 801 800 799 798 797 796 795 794 793 792 791 791 790 789 788 787 786 785 784 783 782 780 779 778 776 774 772 770 768 765 763 760 757 755 752 749 746 743 739 735 731 727 724 721 720 720 720 719 718 717 716 715 714 714 715 716 717 718 718 718 717 718 718 718 718 719 720 721 722 723 723 723 724 724 725 726 727 728 729 729 729 729 731 731
801 801 800 799 798 797 797 796 795 794 793 792 791 790 789 789 788 787 786 785 784 782 781 780 779 777 776 774 771 769 767 765 763 760 757 754 751 748 744 740 736 732 729 725 721 719 719 719 718 717 716 715 714 714 713 713 713 714 714 714 714 714 713 713 713 713 713 715 716 718 719 720 720 720 721 721 721 722 723 724 725 725 725 726 726
801 800 800 799 799 798 797 796 796 795 794 793 792 791 790 790 789 788 787 786 785 784 782 781 780 778 776 775 773 771 769 766 763 760 756 754 751 748 745 741 737 734 731 727 723 721 720 720 720 720 719 718 717 716 714 713 713 712 712 712 712 712 711 711 710 709 709 710 711 712 714 716 716 717 717 718 719 720 720 720 720 721 721 722 722
801 800 799 799 798 798 797 797 796 795 795 794 793 792 792 791 790 789 789 787 786 785 784 782 781 779 777 775 773 771 769 766 762 758 755 753 750 747 744 741 737 734 732 728 725 724 724 724 724 723 723 722 720 719 717 716 715 714 713 712 712 712 711 710 709 708 707 708 708 709 711 712 713 714 714 714 715 717 717 717 717 717 718 718 719
800 799 799 799 798 797 797 796 796 796 795 794 794 793 792 791 791 790 789 788 787 786 784 783 781 779 777 775 773 771 769 766 763 759 756 753 751 748 745 742 739 736 732 729 727 728 728 728 728 727 726 726 725 723 721 720 718 718 716 715 714 713 711 710 709 708 707 707 707 708 709 710 710 711 711 711 712 713 714 714 714 715 715 716 716
799 799 799 798 797 797 797 796 796 795 794 794 794 793 792 791 790 790 789 788 787 786 784 783 781 779 778 776 774 772 769 767 764 761 758 755 752 750 747 744 741 738 734 731 732 733 732 731 730 730 729 729 728 727 725 724 723 721 720 718 717 715 713 712 710 708 707 707 708 708 709 709 709 709 709 709 710 710 711 711 712 712 713 713 714
798 798 798 798 797 797 796 796 795 795 794 794 793 792 792 791 790 789 788 787 786 785 784 783 781 779 778 776 774 773 771 768 765 763 760 757 755 752 749 747 744 740 737 736 737 738 736 735 733 732 731 731 730 729 728 727 725 724 722 721 719 717 715 713 712 710 710 709 709 709 709 709 709 709 709 709 709 709 710 710 710 711 711 712 712
798 797 797 797 796 796 796 795 795 795 794 793 793 792 792 791 790 789 788 787 786 785 784 783 782 780 778 777 775 773 771 769 767 764 762 759 756 753 750 747 745 743 741 741 741 741 740 739 738 737 735 734 732 732 731 729 728 726 725 723 722 720 718 716 715 714 713 712 712 711 711 710 709 709 709 709 710 710 710 710 710 711 711 711 711
797 797 796 796 796 795 795 795 795 794 794 793 792 792 791 791 790 790 789 788 787 786 785 784 782 781 780 778 776 774 772 770 768 766 763 761 758 754 751 750 749 748 747 746 745 744 743 743 741 740 739 737 736 735 733 732 730 729 728 727 726 724 722 720 719 718 717 716 715 715 714 713 712 711 711 711 711 711 710 710 711 711 711 712 711
796 796 796 795 795 795 795 794 794 794 793 792 792 791 791 790 790 789 788 788 787 786 785 784 782 781 780 778 777 775 773 772 770 767 765 763 760 757 755 755 754 753 751 750 749 748 746 745 744 743 741 740 738 737 735 734 733 732 731 730 729 728 726 724 723 722 721 719 718 717 716 715 714 713 713 712 712 712 711 711 711 711 711 711 711
795 795 795 795 794 794 794 794 794 793 793 792 791 791 791 790 789 789 788 787 786 785 784 783 782 780 779 778 777 776 774 772 770 768 766 764 762 760 759 758 757 756 755 754 753 751 750 748 747 745 744 742 741 740 738 737 736 735 734 733 731 730 729 727 726 724 723 721 720 719 718 717 716 715 714 713 713 713 712 712 712 711 711 711 710
794 794 794 794 794 794 794 793 793 793 792 792 791 791 790 790 789 788 787 786 785 784 783 783 782 780 779 778 777 776 774 772 770 769 767 766 764 763 762 761 760 759 758 757 755 754 753 751 750 748 747 745 743 742 740 739 738 737 736 734 733 732 730 729 727 726 724 723 722 721 720 719 717 716 715 714 714 714 713 712 712 711 711 711 710
793 793 793 793 793 793 793 793 792 792 792 791 791 790 789 789 788 787 787 786 785 784 783 782 781 780 779 778 777 775 774 773 772 771 769 768 766 765 764 763 762 761 759 758 757 756 755 753 752 751 749 747 746 744 743 741 740 738 737 736 735 733 732 731 729 728 727 726 725 723 722 720 719 718 717 716 715 714 713 712 712 712 711 711 711
792 792 792 792 792 792 792 792 792 791 791 791 790 789 789 788 787 787 786 785 784 784 783 782 781 780 779 778 777 776 775 774 773 772 770 769 768 767 766 764 763 762 761 760 758 757 756 755 753 752 750 749 748 746 745 743 742 741 739 738 736 735 734 733 732 731 729 728 727 725 724 723 721 720 719 718 717 716 714 714 713 713 712 712 711
791 791 791 791 791 791 791 791 790 790 790 790 789 789 788 787 787 786 785 785 784 783 782 781 780 779 778 777 776 776 775 774 773 772 771 770 769 768 766 765 764 763 762 761 759 758 757 755 754 753 751 750 748 747 746 744 743 742 741 739 738 737 735 734 733 732 731 730 729 727 726 725 724 722 721 720 718 717 716 715 714 713 713 712 711
790 790 790 790 790 790 790 789 789 789 789 788 788 788 787 786 786 785 784 784 783 782 781 780 779 779 778 777 776 775 774 773 772 772 771 770 769 767 766 765 764 763 762 761 760 759 758 756 755 754 752 750 749 748 746 745 744 743 741 740 739 738 737 736 735 734 732 731 730 729 728 727 725 724 723 721 720 719 717 716 715 715 714 713 712
788 789 789 789 789 788 788 788 788 788 787 787 787 786 786 785 785 784 783 783 782 781 780 779 778 778 777 776 775 774 773 772 772 771 770 769 768 767 766 765 764 763 762 761 760 759 758 757 755 754 753 751 750 748 747 746 744 743 742 741 740 739 738 737 736 735 733 732 731 730 729 728 727 726 724 723 722 721 719 718 717 716 715 714 713
786 787 787 787 787 787 787 786 786 786 785 785 785 784 784 784 783 782 782 781 780 780 779 778 777 776 776 775 774 773 772 771 771 770 769 768 767 766 765 764 763 762 761 760 759 758 757 756 755 754 753 752 750 749 747 746 744 743 742 741 740 739 738 737 736 735 734 733 732 731 730 729 728 727 725 724 723 722 721 719 718 717 716 715 714
784 785 785 785 785 785 785 785 784 784 784 783 783 782 782 781 781 780 780 779 778 778 777 776 776 775 774 773 773 772 771 770 769 768 767 766 765 765 764 763 762 761 760 759 758 757 756 755 754 753 752 751 750 749 747 746 745 743 742 741 739 738 737 737 736 735 734 733 732 731 730 729 728 727 726 725 723 722 721 720 719 718 717 716 715
782 782 783 783 784 784 783 783 783 782 782 781 781 780 779 779 778 778 777 777 776 776 775 774 774 773 772 772 771 770 769 768 767 767 766 765 764 763 762 761 760 760 758 757 756 755 754 753 752 751 751 750 749 748 747 745 744 743 742 740 739 738 737 736 735 734 734 733 732 731 730 729 728 727 726 724 723 722 721 720 719 718 717 715 714
779 780 781 781 781 781 781 781 781 780 780 779 779 778 778 777 776 776 775 775 774 773 772 772 771 770 770 769 768 768 767 766 765 765 764 763 762 761 760 759 759 758 757 756 755 754 753 752 751 750 749 748 747 746 746 744 743 742 741 740 739 737 736 735 734 733 733 732 731 730 730 729 728 727 726 724 723 722 721 720 718 717 716 715 714
776 777 778 778 779 779 779 779 779 778 778 778 777 777 776 776 775 774 773 773 772 771 771 770 769 768 767 766 766 765 765 764 763 762 761 760 760 759 758 758 757 756 755 754 753 752 751 750 749 748 747 746 745 745 744 743 742 741 740 739 738 736 735 734 733 732 732 731 730 730 729 728 728 727 726 725 723 722 721 719 718 717 716 715 714
773 773 774 775 775 775 776 776 776 776 776 776 776 775 774 774 773 772 772 771 770 769 769 768 767 766 765 764 763 762 761 761 760 759 759 758 757 756 756 755 754 753 753 752 751 750 750 749 748 747 746 744 743 743 742 741 740 739 738 737 736 735 734 733 732 731 730 729 729 728 728 728 727 726 725 724 723 722 721 719 718 717 716 715 714
770 771 771 772 772 772 773 773 774 774 774 774 774 773 773 772 771 770 770 769 768 767 767 766 765 764 763 761 760 759 758 757 757 756 755 755 754 753 753 752 751 751 750 749 748 748 747 746 745 745 744 743 742 741 740 739 738 737 736 736 735 734 733 732 731 730 729 728 728 727 726 726 726 725 725 724 723 722 721 720 718 717 716 715 714
Wind_Speed
16 15 15 15 14 13 13 13 12 12 11 10 10 9 9 9 9 8 9 10 10 10 11 10 9 8 7 7 7 7 7 6 6 6 8 9 11 11 12 13 16 18 19 19 20 21 22 24 25 26 25 25 26 26 26 26 26 26 25 25 26 26 27 24 16 12 17 20 18 17 16 16 17 18 20 22 24 25 24 25 25 26 28 28 27
16 15 15 15 14 14 13 13 12 12 11 10 10 10 9 9 9 9 9 10 11 11 12 12 12 11 10 9 8 8 7 7 7 8 9 10 10 11 12 13 15 16 18 18 18 19 20 22 24 25 26 27 28 28 28 27 26 27 27 26 27 28 27 27 22 16 16 20 20 19 18 17 18 19 20 22 24 24 24 25 25 26 28 28 28
16 15 14 14 14 14 14 13 12 12 11 11 10 9 9 9 8 8 9 9 10 11 12 13 14 14 13 12 11 10 9 8 8 9 10 10 10 11 11 12 13 16 17 18 18 18 19 21 23 24 25 27 29 30 30 29 27 28 28 28 28 28 28 29 26 21 18 20 22 22 20 19 20 21 20 21 23 24 25 25 25 26 27 27 28
16 15 15 14 14 14 14 13 12 12 11 11 10 9 9 9 9 9 9 9 9 10 11 12 13 15 16 15 14 13 12 10 10 10 10 11 11 11 11 12 14 15 16 17 17 18 19 22 24 24 24 26 29 30 31 30 29 28 28 28 28 28 28 28 29 26 21 20 22 23 22 21 21 21 20 21 22 24 25 25 25 26 27 27 28
16 16 15 15 15 15 14 13 13 12 11 11 11 11 10 10 10 9 10 10 10 10 11 11 12 14 15 16 16 15 14 13 12 11 11 11 11 11 11 12 14 15 16 16 17 18 19 22 24 22 21 24 27 28 29 30 29 28 28 27 27 27 27 28 29 29 25 22 22 22 21 20 20 20 20 21 22 23 25 26 26 27 27 27 28
17 16 16 15 15 15 15 14 13 12 12 13 13 13 12 12 12 12 12 12 13 13 13 12 13 13 14 15 16 16 15 15 14 14 13 12 12 13 13 13 14 15 15 16 17 18 20 22 23 21 20 23 25 26 27 27 28 28 28 27 27 26 26 28 28 28 28 27 25 22 21 21 20 20 20 21 22 24 25 26 26 26 26 26 28
17 17 16 16 16 16 16 15 14 14 14 14 14 14 13 13 14 14 13 14 16 16 15 14 14 14 14 14 14 15 16 16 16 15 15 14 14 14 14 14 14 15 16 17 17 18 20 22 23 22 22 23 26 26 25 26 27 28 29 28 27 26 26 27 27 27 28 28 26 25 24 23 22 21 20 20 21 23 24 24 23 25 26 27 29
17 17 16 15 16 16 15 15 15 15 15 15 15 15 15 15 15 16 15 15 17 17 16 16 15 14 14 14 13 14 15 16 16 16 16 16 15 15 14 14 15 16 16 17 18 19 21 23 25 26 25 25 26 26 25 25 26 27 29 29 28 27 27 27 26 26 26 26 26 25 24 23 22 20 18 17 18 21 23 24 24 26 28 29 31
17 17 15 15 15 15 15 16 17 16 15 15 15 16 17 17 16 17 17 17 17 17 16 15 15 14 14 14 13 12 13 15 16 17 18 17 17 16 16 15 16 17 18 18 18 20 22 23 26 27 27 28 29 29 29 28 27 28 30 30 29 28 28 27 26 25 25 24 24 23 21 21 21 20 19 19 22 24 24 24 25 26 26 27 30
17 17 15 14 14 13 14 15 17 17 16 16 16 16 18 18 16 15 15 17 18 16 15 15 14 14 13 13 13 13 13 14 15 16 18 18 18 18 18 17 16 17 19 19 19 20 21 23 24 25 25 26 28 29 30 31 31 32 32 31 30 29 28 27 26 25 24 23 23 22 20 20 23 23 23 25 27 26 23 24 25 23 20 20 24
18 17 15 13 13 12 12 14 16 17 16 16 17 17 19 19 16 13 13 15 16 15 13 14 14 13 13 13 13 13 13 13 14 15 16 17 18 18 19 19 18 18 20 20 21 21 21 22 23 23 23 24 25 26 27 28 30 33 35 35 34 32 29 28 27 26 25 24 24 23 21 22 23 24 25 26 26 26 26 26 25 21 18 17 17
18 17 15 14 13 12 12 12 14 15 16 16 17 18 19 20 17 15 14 15 16 15 12 11 12 12 12 13 13 13 13 13 13 13 14 15 16 18 19 20 20 21 21 22 22 22 22 22 23 23 23 23 24 25 26 26 27 30 34 36 36 36 34 31 30 28 26 26 24 23 24 24 22 23 25 26 25 28 28 27 26 24 22 20 18
18 17 15 14 13 13 13 13 14 15 15 16 17 19 20 20 18 16 15 16 16 16 13 11 10 10 10 11 12 12 12 12 12 13 14 14 15 17 19 20 21 22 23 23 24 23 23 23 23 24 24 23 23 24 25 26 27 28 31 34 36 37 37 36 35 32 31 29 27 26 27 26 23 23 27 27 26 27 27 26 27 26 24 24 26
17 16 15 14 14 13 14 14 15 15 15 16 17 19 20 19 17 16 15 16 17 17 15 13 11 9 8 8 9 10 11 12 13 13 14 14 15 16 18 20 21 22 23 23 24 25 24 24 24 25 24 24 24 23 24 25 27 28 30 31 33 35 37 39 39 37 36 35 32 31 31 30 27 27 27 26 26 27 28 28 28 27 27 29 31
17 16 15 15 14 14 14 15 15 15 16 16 17 19 19 18 16 15 14 15 17 15 15 15 13 10 8 7 7 8 9 10 11 12 13 14 15 16 18 20 22 23 24 24 25 26 26 26 26 26 26 26 25 25 25 26 27 28 30 31 32 33 35 37 38 39 39 39 38 38 37 35 33 32 30 27 26 27 28 29 28 28 28 27 25
18 17 16 16 15 14 13 14 14 14 15 16 17 19 18 16 14 13 13 14 14 14 15 15 14 11 9 8 7 8 8 7 7 8 10 11 12 14 16 18 20 22 24 25 26 27 27 28 28 28 28 28 27 26 26 27 28 29 29 30 30 31 33 34 34 35 36 37 39 39 39 38 37 36 34 30 28 27 27 26 25 23 22 19 17
18 18 17 16 16 14 13 13 13 13 14 16 17 17 16 15 14 12 12 12 13 13 14 14 14 13 11 10 9 9 8 7 7 7 9 10 11 13 14 16 18 20 22 24 25 26 27 28 28 28 29 29 28 27 27 27 29 30 30 29 28 28 30 32 32 33 33 33 35 36 37 38 37 38 38 34 30 28 24 23 22 20 19 15 12
18 17 17 16 15 15 13 12 13 14 16 16 17 16 15 15 14 12 11 11 11 12 12 12 13 13 12 12 10 9 9 8 8 8 9 11 12 13 15 17 19 21 23 24 25 25 26 28 28 28 29 29 28 28 27 27 29 30 30 29 28 27 28 29 30 31 32 32 32 32 33 34 34 35 36 35 33 31 27 25 24 22 20 17 16
17 16 16 15 15 14 13 12 13 16 18 17 16 17 16 16 15 13 12 11 11 11 11 11 12 13 13 13 11 10 10 10 9 9 10 11 12 14 15 16 18 20 22 22 24 26 27 29 29 29 30 29 28 28 27 28 30 31 30 29 29 28 27 26 27 30 32 32 33 32 32 33 32 32 32 32 32 33 32 29 27 25 23 22 23
15 15 15 16 15 15 14 12 12 15 18 18 17 18 18 18 17 16 14 13 12 12 12 11 12 12 14 14 14 13 12 11 11 10 10 11 12 14 14 15 16 18 20 21 23 25 27 28 30 31 31 31 30 30 29 29 31 32 31 29 29 28 26 26 28 31 32 32 32 33 33 33 32 30 30 29 29 30 31 29 30 30 28 28 28
13 14 15 16 16 15 14 13 12 13 15 17 19 20 20 20 19 19 18 16 15 15 14 13 12 13 14 15 17 17 15 14 14 13 13 12 12 13 14 15 15 17 21 23 23 24 25 27 28 30 30 31 31 31 31 30 31 33 34 33 32 30 26 26 29 31 31 30 30 30 30 31 31 30 29 29 27 28 28 28 30 32 33 34 32
11 13 15 16 16 16 15 13 12 12 12 14 17 20 21 21 21 20 20 20 18 17 16 14 12 12 14 15 17 19 19 18 18 18 17 16 14 14 14 14 15 17 21 25 26 26 26 26 26 27 28 29 30 30 30 30 31 33 36 36 34 32 29 29 29 28 28 28 26 25 26 28 30 30 29 29 27 26 27 27 28 29 31 34 33
9 11 13 14 15 15 14 14 13 12 12 12 14 17 20 21 22 22 21 21 20 19 17 16 14 13 15 17 19 20 21 21 21 21 21 20 18 17 16 16 16 17 19 23 27 29 28 28 28 27 27 27 27 28 30 31 31 33 34 34 33 32 31 31 30 28 27 27 26 25 26 26 28 29 29 30 29 28 27 25 25 25 26 28 31
9 10 12 13 13 14 13 13 14 13 13 13 13 14 17 19 21 22 22 22 21 19 18 17 15 15 17 19 21 22 23 24 24 24 24 23 23 22 22 22 21 20 20 23 26 27 28 28 29 28 28 26 25 26 28 31 32 33 32 31 30 29 29 30 30 28 28 28 26 25 25 27 28 29 30 31 30 28 25 22 21 23 24 24 27
10 12 12 13 13 13 13 13 14 13 13 13 13 14 15 17 19 20 22 22 21 19 18 17 15 15 16 18 21 23 24 25 26 26 26 25 25 27 27 27 27 25 23 24 23 21 22 25 26 27 27 28 27 27 28 29 30 31 31 30 29 28 28 28 28 26 26 27 27 25 25 27 29 31 31 31 29 25 22 20 19 20 22 22 24
11 12 13 13 13 14 14 15 15 14 13 12 13 13 14 15 16 18 20 21 21 20 18 16 15 15 15 16 18 20 22 25 27 28 28 26 27 29 30 30 31 30 27 26 23 17 15 18 21 22 23 25 27 29 31 30 28 26 26 26 26 26 26 25 24 23 24 27 27 26 26 27 28 30 30 28 26 23 22 21 20 21 22 24 26
11 12 13 13 13 14 15 16 16 15 15 14 13 14 14 14 14 16 17 19 19 19 18 16 15 15 15 16 17 18 19 22 26 28 29 27 27 29 30 30 32 33 32 30 25 16 13 14 16 17 18 20 21 24 29 32 31 29 28 26 25 26 25 24 23 23 24 26 26 27 28 28 27 27 26 25 24 24 24 23 22 23 25 26 27
8 9 10 12 12 13 14 15 15 16 16 15 14 13 14 14 14 14 15 16 17 17 17 15 15 16 15 15 16 17 18 20 24 27 26 23 24 26 27 28 30 30 30 28 21 13 10 11 13 13 14 15 15 15 17 21 25 26 26 26 26 25 24 22 22 22 23 25 26 25 24 23 24 25 26 27 28 27 26 25 25 25 25 24 24
6 8 8 9 10 11 12 13 14 14 15 15 14 12 12 13 14 14 14 14 14 14 15 14 15 16 16 15 15 16 18 20 23 24 20 17 18 22 24 24 24 23 22 19 16 15 13 13 13 13 12 10 10 9 9 11 14 17 19 20 21 21 21 21 21 21 21 22 24 24 22 19 20 23 24 24 26 26 24 23 23 23 23 23 23
7 8 8 8 7 8 10 11 11 12 13 14 14 12 10 11 13 14 14 13 13 12 12 12 13 14 16 16 16 16 18 21 24 23 18 15 15 19 20 19 18 18 17 14 17 21 21 20 21 20 18 16 14 14 12 9 6 7 8 9 10 12 13 15 15 16 17 18 20 23 23 21 21 21 21 21 23 24 22 20 19 19 19 20 21
7 8 9 8 7 6 7 8 9 10 11 12 14 13 11 10 10 12 12 13 13 13 12 11 11 12 14 16 18 19 20 22 25 24 20 16 15 19 21 20 18 18 16 15 20 26 25 24 24 23 22 21 21 20 19 17 14 11 6 4 4 2 1 3 5 9 13 14 14 15 17 17 17 17 17 17 18 19 16 14 14 15 16 17 16
5 6 7 8 7 7 6 6 7 8 9 10 11 13 12 11 10 11 12 12 13 13 13 13 13 13 14 16 18 20 22 23 24 25 22 18 16 19 23 23 23 21 20 22 26 27 25 24 25 25 24 23 22 21 20 19 18 16 13 11 11 10 8 7 4 2 5 5 5 6 7 7 8 9 9 9 10 10 8 8 8 10 13 15 16
3 4 5 6 7 7 6 5 6 7 8 9 10 11 12 12 11 11 11 13 14 14 15 15 15 16 16 16 17 19 21 22 23 24 23 21 19 20 23 25 26 27 27 28 27 25 23 23 23 23 24 24 23 22 22 20 19 17 16 15 14 13 12 11 10 9 8 7 6 6 6 5 5 5 4 3 3 3 2 3 4 5 7 9 10
3 4 4 4 5 6 5 5 6 7 8 8 7 9 11 12 11 11 12 14 16 17 18 18 18 18 19 19 18 18 19 21 22 23 24 23 22 21 23 25 28 30 31 29 25 23 23 23 22 22 22 23 23 22 22 22 20 18 18 17 16 16 15 14 14 14 13 12 11 11 10 9 8 7 7 6 5 4 3 2 2 2 3 4 5
4 3 3 4 4 4 4 4 5 6 7 6 5 6 8 10 11 11 11 12 13 15 17 18 18 18 18 19 19 19 19 21 22 23 24 24 24 24 27 29 28 29 29 27 23 21 21 21 21 21 20 20 21 21 21 22 22 20 19 19 18 18 18 17 17 17 16 15 15 13 12 12 11 10 9 8 8 7 6 6 5 4 4 5 6
5 3 3 3 3 3 3 4 4 5 7 6 4 4 6 8 9 10 9 9 9 11 13 15 16 16 16 17 18 19 19 20 21 23 24 25 25 27 29 28 25 24 24 23 22 21 20 19 18 19 19 19 19 19 19 20 21 20 20 19 19 19 20 19 19 18 17 17 17 15 14 14 13 12 11 10 10 10 9 7 7 6 6 5 6
6 4 2 2 1 2 3 3 4 6 7 7 5 4 5 7 8 9 9 8 8 9 10 12 14 15 16 17 18 18 19 18 19 21 23 24 25 27 28 26 24 23 23 22 21 20 20 19 18 18 19 19 19 19 19 19 19 19 19 19 18 19 19 19 18 18 19 19 18 17 16 16 15 13 12 12 11 11 10 8 7 7 7 6 7
6 4 3 2 1 0 2 4 4 5 7 7 5 5 5 6 7 8 9 9 9 9 10 11 13 14 16 16 17 17 19 19 20 21 23 23 24 25 24 24 24 23 23 22 22 22 21 21 20 20 19 19 19 19 18 18 17 17 17 17 17 17 17 18 18 19 19 20 20 19 18 17 16 15 14 13 13 12 11 9 8 8 8 8 8
6 5 4 3 3 2 2 4 5 5 6 6 6 6 6 7 8 9 10 11 11 11 11 12 12 13 14 15 16 17 18 20 20 20 20 20 21 21 21 21 21 21 21 21 22 22 22 22 22 22 21 21 20 20 19 17 17 16 16 17 17 17 18 18 18 19 20 20 19 19 18 18 17 17 16 15 14 12 11 11 10 9 10 10 9
5 5 5 5 4 4 4 5 6 6 5 6 7 7 8 8 9 9 11 12 12 12 13 13 13 12 12 13 14 15 16 16 16 16 16 17 17 17 18 18 18 18 18 18 19 19 20 20 21 21 21 21 21 20 19 18 17 16 15 15 16 17 17 18 18 18 19 19 18 18 18 18 18 18 17 16 14 13 12 12 11 10 10 10 10
6 6 6 6 5 5 6 7 7 6 6 6 7 8 9 9 9 10 11 12 12 12 12 13 12 12 11 11 12 12 13 13 14 14 14 14 14 15 15 16 16 16 16 16 16 17 17 18 19 20 20 21 20 20 19 18 17 16 15 14 14 14 14 15 15 16 16 16 17 17 17 17 18 18 18 16 14 13 13 12 11 11 11 11 12
8 8 7 7 8 8 8 8 8 8 7 8 8 8 9 9 9 10 11 11 12 12 13 13 12 12 11 11 11 11 11 11 12 12 12 12 12 12 13 13 14 14 15 15 15 16 16 17 17 18 19 20 20 20 19 19 17 16 15 13 12 12 12 12 12 13 13 13 14 14 15 16 16 17 17 16 15 14 14 13 13 13 12 13 13
11 10 9 8 9 10 10 9 9 10 10 10 10 10 10 10 11 11 12 13 13 13 13 14 14 13 12 11 11 11 11 11 11 11 12 12 12 12 12 12 12 13 13 14 15 15 15 16 16 17 18 18 19 19 19 18 17 16 15 13 12 10 10 9 9 10 10 11 12 12 12 13 14 15 15 15 14 14 13 13 13 13 13 13 13
12 11 10 10 10 10 11 12 11 11 12 12 13 12 12 12 13 13 14 14 15 15 15 15 15 14 14 13 12 12 12 12 11 11 11 11 12 12 12 12 13 13 13 13 14 14 15 15 16 17 17 17 18 18 17 16 16 16 15 14 13 11 9 8 8 8 9 9 10 10 11 11 12 13 13 13 13 12 12 12 12 12 12 13 13
13 12 12 11 11 11 11 12 13 13 13 13 13 14 14 14 15 15 16 16 17 17 17 16 16 16 16 15 14 14 14 14 14 13 13 12 12 13 13 13 13 14 14 14 14 14 14 15 16 16 17 17 17 18 17 16 15 14 14 14 13 12 11 9 8 8 8 8 8 9 9 10 10 11 11 12 12 11 11 11 11 11 12 12 12
15 14 13 13 12 11 11 10 11 13 13 13 14 14 15 15 16 16 17 17 17 18 19 19 18 18 17 17 16 16 15 15 15 15 15 15 14 14 14 14 14 14 14 15 15 15 14 15 15 16 17 17 17 18 17 15 14 13 13 13 12 12 11 10 9 8 7 7 8 8 9 9 9 9 10 10 10 10 10 10 10 11 11 11 11
16 16 15 14 14 13 12 10 10 10 11 12 13 14 14 15 15 15 15 16 16 17 19 20 20 20 20 19 19 18 17 17 17 17 16 17 16 16 15 15 15 15 15 15 15 15 15 15 15 16 17 17 17 17 16 15 14 12 12 12 12 11 11 10 10 9 8 8 8 8 8 8 8 8 9 10 10 9 9 9 10 10 11 11 12
18 18 16 15 15 15 14 12 11 10 10 10 11 12 12 13 13 13 13 13 14 15 17 18 20 22 22 22 22 21 20 19 19 18 18 18 18 17 17 17 17 16 16 16 16 16 16 16 16 16 16 17 17 17 16 15 14 13 12 11 11 11 11 11 11 10 9 9 8 7 8 8 8 8 8 9 10 9 8 8 8 9 9 10 12
19 19 18 17 17 16 15 14 13 12 11 11 11 11 11 10 10 10 10 11 12 13 14 15 17 19 21 23 24 24 23 22 21 21 20 20 19 18 18 18 18 18 18 18 17 17 17 17 17 16 16 16 17 16 16 15 14 13 12 12 11 11 12 12 12 12 11 10 9 8 8 8 9 8 8 9 10 10 8 7 6 7 8 8 10
20 20 19 19 18 17 16 15 14 14 12 11 10 9 9 9 9 9 9 10 11 12 13 14 15 16 17 19 20 22 23 24 24 24 23 22 21 21 20 20 20 20 19 19 19 18 18 18 18 17 17 16 17 17 16 15 14 13 12 12 12 11 11 12 13 13 12 12 11 9 9 9 9 9 9 9 9 10 10 8 7 7 7 7 8
21 20 20 20 19 18 18 17 16 15 13 11 9 8 8 9 9 9 9 10 12 13 14 15 16 16 17 18 18 19 20 21 22 24 24 24 24 23 22 22 22 22 21 21 20 20 19 18 18 18 18 17 16 16 16 16 15 14 13 12 12 11 11 11 12 13 13 12 11 11 10 10 10 11 11 11 10 10 10 9 7 6 5 5 5
Wind_Direction
346 346 345 344 344 345 345 343 340 332 325 320 315 310 306 305 307 306 301 294 291 287 284 285 286 282 276 274 274 276 279 283 284 269 253 250 255 258 259 257 256 256 256 256 255 256 257 258 260 262 262 261 261 260 256 252 249 246 244 241 238 236 232 227 227 244 250 251 256 261 264 258 250 249 248 244 244 246 245 244 244 241 239 239 238
342 343 344 343 343 345 343 340 336 330 325 320 314 310 306 305 306 303 297 292 289 286 283 280 281 280 276 272 270 269 267 266 271 270 260 252 250 253 254 253 257 259 258 257 258 260 261 261 263 264 262 261 262 262 260 255 250 247 243 240 238 237 234 228 227 233 243 247 251 256 257 252 249 248 246 245 246 246 245 244 243 242 240 240 240
342 344 345 344 345 345 343 341 338 332 329 327 323 320 315 312 312 308 303 296 288 285 281 277 274 273 272 269 264 263 263 258 257 260 261 258 254 254 254 253 257 258 258 260 264 264 263 262 264 264 262 262 261 262 261 258 251 247 245 242 240 240 238 234 230 231 237 243 248 250 249 247 249 251 250 250 247 244 246 247 245 243 243 241 241
346 348 348 347 346 345 345 344 341 337 336 335 334 332 327 322 319 315 311 305 297 289 284 279 273 269 267 265 262 260 260 259 257 255 258 262 262 262 261 258 258 258 258 262 266 264 260 260 263 262 258 257 258 258 258 256 250 246 244 243 242 243 242 239 237 236 238 242 245 246 247 247 250 253 251 246 243 242 246 248 246 245 246 245 244
347 348 349 348 347 348 349 347 344 343 342 343 344 341 338 333 327 322 318 314 308 300 293 286 277 269 264 263 262 260 259 260 260 259 260 264 268 268 266 265 264 262 262 263 264 262 259 259 261 259 253 251 254 254 252 252 249 246 244 243 244 246 246 244 242 240 239 242 244 245 245 245 246 249 247 241 238 239 241 244 245 245 245 245 246
346 346 349 350 350 351 353 352 351 350 349 351 351 349 346 342 336 331 325 318 311 305 299 292 285 276 267 262 260 259 258 258 260 262 263 263 267 270 268 267 266 266 265 263 263 261 260 261 261 257 251 251 252 252 251 251 250 248 246 246 245 245 245 245 244 241 239 242 244 244 241 239 239 241 243 241 237 235 235 237 240 241 241 242 247
343 344 349 354 355 355 357 358 357 355 355 355 354 353 351 344 336 329 320 314 311 308 302 295 290 285 276 267 260 257 257 257 257 260 261 262 265 268 269 269 267 266 265 264 263 261 260 261 262 259 255 253 254 254 253 252 252 252 251 250 248 244 243 242 241 237 237 239 242 242 241 241 239 240 243 243 238 236 232 227 228 233 237 241 246
342 342 349 356 357 357 1 3 2 360 358 357 357 356 351 344 337 332 322 313 308 306 304 299 292 288 282 273 264 258 255 254 255 256 258 259 261 264 268 271 271 270 268 265 263 261 259 259 260 260 258 256 256 256 254 252 252 253 253 252 248 244 242 241 238 235 233 234 238 240 242 241 238 236 236 230 224 227 228 224 226 233 237 240 244
343 343 348 354 356 360 5 6 4 1 359 360 0 357 351 347 345 342 336 328 318 307 301 297 290 285 282 275 267 261 255 251 251 251 254 257 258 261 265 269 272 273 271 268 264 260 260 259 259 260 259 260 260 260 259 257 254 253 254 252 247 243 241 241 239 236 232 231 235 238 238 238 235 228 222 219 224 232 232 227 229 235 237 238 244
345 345 346 348 354 2 7 7 4 2 3 4 3 359 355 351 350 347 341 337 333 321 306 296 288 282 280 276 269 265 261 257 253 251 251 253 255 258 261 263 266 269 269 268 265 263 263 263 263 263 262 262 264 263 262 261 258 257 256 254 249 243 239 238 238 236 233 232 234 233 231 234 235 228 224 229 236 238 233 227 229 233 231 233 245
347 345 343 346 353 2 8 8 7 7 10 12 8 2 357 353 350 347 341 339 338 332 319 306 297 290 285 283 277 272 269 266 263 260 257 255 256 257 258 259 259 261 264 264 264 265 266 266 267 267 267 266 266 267 266 265 262 259 257 255 253 249 243 238 236 236 234 234 236 233 230 236 239 234 233 235 236 235 234 231 229 225 218 222 238
350 347 345 347 354 3 9 10 12 13 16 17 12 4 359 355 353 351 348 346 344 343 336 321 310 303 294 289 285 282 281 279 276 275 270 264 262 260 260 260 259 259 261 262 263 264 265 266 267 267 268 268 267 268 269 269 267 263 258 255 253 252 249 245 241 238 235 237 239 235 235 240 240 236 236 237 236 237 237 233 229 225 220 222 230
354 351 351 352 355 3 10 14 15 15 19 21 14 5 360 358 356 353 353 354 353 352 351 340 328 318 308 301 297 294 295 295 292 289 284 277 270 265 263 262 262 262 263 263 264 264 263 264 264 264 264 265 265 265 266 268 269 266 262 257 253 251 250 248 246 244 242 241 239 238 241 243 240 238 241 241 238 235 232 229 230 227 222 228 238
359 355 356 356 357 3 12 18 20 19 23 24 15 6 1 359 358 356 360 3 360 357 359 360 354 344 335 324 315 313 316 316 311 304 297 289 280 272 268 267 266 267 267 266 267 267 265 264 263 262 262 261 259 258 259 262 264 263 262 259 254 252 249 246 246 246 245 243 242 244 247 247 246 246 247 244 237 234 233 234 233 230 231 242 249
5 0 0 0 0 3 10 19 25 28 29 25 17 9 3 1 360 360 5 8 3 3 10 12 9 6 3 351 341 346 346 334 321 309 300 292 283 276 272 270 270 270 269 269 269 268 268 267 265 264 263 261 258 255 255 257 258 258 258 257 256 254 251 249 247 246 246 245 245 248 250 251 251 252 250 246 242 243 245 245 244 242 243 247 250
8 5 4 3 3 5 11 22 31 34 30 26 20 12 5 2 2 2 6 8 8 17 23 20 21 28 27 14 12 23 19 355 336 324 310 299 290 284 279 275 274 273 272 272 271 271 271 269 267 265 264 263 261 258 256 255 254 254 253 253 254 255 255 255 254 253 252 251 250 252 254 256 256 256 255 249 247 250 249 244 242 240 236 238 241
9 7 6 5 6 10 18 29 35 35 32 30 27 19 11 8 6 4 7 8 11 21 24 22 27 34 36 30 29 36 31 10 352 337 321 312 306 301 296 291 286 282 279 276 274 274 273 271 268 266 264 263 263 262 260 256 252 252 252 252 252 252 254 259 260 259 258 256 255 256 257 259 260 260 258 252 249 249 241 230 229 226 224 228 232
10 9 9 10 11 14 26 39 41 37 38 37 32 27 23 18 13 12 14 15 17 20 21 24 30 36 38 34 29 27 20 5 350 337 326 318 313 308 304 300 296 292 289 285 281 278 275 273 270 267 263 263 263 264 262 258 253 250 250 251 251 249 249 254 258 260 260 258 257 256 256 258 258 258 258 254 250 246 236 230 233 226 219 222 226
13 13 15 17 17 20 32 46 44 39 39 38 33 30 30 28 27 28 28 25 24 23 23 27 32 36 37 32 25 20 13 4 355 346 337 328 319 312 307 303 298 294 292 289 286 283 279 275 272 268 265 264 263 262 262 260 257 253 249 249 249 247 247 248 251 255 256 255 254 254 255 257 257 257 258 255 251 247 241 237 236 227 220 224 228
17 18 21 24 24 26 35 44 43 38 37 37 35 33 33 34 35 39 39 35 32 31 31 31 30 31 32 29 25 21 13 7 4 356 346 338 328 319 314 309 303 297 291 287 284 282 280 277 274 271 269 267 264 262 259 257 256 255 251 247 247 248 248 248 250 252 253 253 254 255 256 259 260 258 258 257 254 252 247 239 233 229 226 228 228
23 25 26 28 28 30 35 41 43 38 34 35 36 36 35 36 37 40 40 39 36 34 33 33 29 26 25 24 23 20 14 9 9 8 1 352 342 331 322 316 311 303 295 289 284 280 277 276 275 273 272 271 269 266 263 258 255 254 251 248 249 252 253 252 253 253 254 253 253 253 255 258 259 258 258 258 256 254 252 244 238 236 232 229 228
26 27 28 30 31 33 36 38 40 37 31 31 34 35 36 36 36 37 37 36 34 31 29 29 25 21 19 16 16 16 12 9 8 8 6 2 357 348 336 326 320 312 300 292 287 283 279 277 277 276 275 274 273 271 268 264 259 255 253 253 253 254 254 255 257 257 256 255 253 251 251 253 255 256 257 258 256 254 252 247 243 240 239 238 236
25 24 25 27 30 33 35 34 34 33 29 28 30 31 33 35 35 35 34 32 30 26 23 21 18 15 12 10 9 8 7 7 7 5 4 2 0 356 348 340 334 323 306 294 290 287 284 281 281 281 279 276 274 273 271 269 266 262 260 260 260 258 255 254 256 257 259 259 256 252 249 247 249 251 253 255 257 255 252 249 245 242 243 246 247
25 25 24 24 27 31 32 32 31 29 26 26 26 27 28 30 31 33 33 31 28 24 20 16 13 10 6 3 3 3 2 4 4 3 2 0 357 355 351 346 342 334 319 305 298 292 286 283 282 280 277 273 269 270 269 268 266 267 268 268 266 263 259 255 255 257 260 261 257 252 249 247 245 247 251 256 257 255 251 249 247 247 247 251 255
34 32 29 28 28 29 29 32 32 31 31 30 29 27 25 25 26 27 29 30 28 23 19 15 10 7 2 358 358 358 359 1 1 1 1 359 356 355 352 347 343 338 327 316 308 295 285 282 280 278 277 272 266 263 265 266 266 267 269 270 268 266 264 262 261 260 259 259 258 253 251 248 245 247 253 256 253 250 248 246 244 243 244 248 254
43 36 32 30 30 28 27 29 34 37 38 37 36 33 28 25 24 23 24 26 27 24 21 17 11 6 359 354 352 352 355 359 359 358 359 358 356 356 353 348 345 342 336 328 321 307 287 281 279 277 279 279 272 264 262 265 270 271 271 271 270 269 268 265 261 255 253 255 257 255 253 252 250 251 253 252 247 244 245 245 241 237 236 237 242
47 38 32 29 29 27 25 26 31 38 40 40 39 37 33 29 26 23 20 19 21 22 21 18 14 9 1 355 352 350 353 356 356 356 357 357 357 357 354 349 347 346 343 337 328 315 295 288 287 285 286 287 282 272 263 262 266 270 273 274 273 271 269 266 260 253 251 254 256 256 256 254 251 248 245 244 247 250 249 245 242 240 238 236 234
43 35 29 27 25 25 25 25 29 36 39 40 38 35 34 32 31 28 22 17 17 20 21 19 16 12 7 360 354 354 356 357 356 356 354 355 358 359 358 355 352 351 347 340 336 333 321 314 314 310 301 294 291 285 275 267 266 268 271 273 272 270 267 262 256 250 250 251 254 258 261 256 248 243 241 240 244 248 248 245 243 242 240 235 231
20 17 15 17 18 20 22 25 29 32 34 37 39 37 33 32 32 33 30 24 19 18 19 20 18 17 16 11 4 359 356 356 358 358 356 358 3 6 5 2 360 360 359 359 12 26 23 14 8 357 341 326 314 309 300 283 272 270 269 267 266 263 258 252 247 246 247 248 249 253 258 255 247 244 241 239 241 245 243 241 240 241 237 231 229
5 11 9 6 5 10 15 19 25 30 29 30 33 36 37 35 34 34 32 29 25 21 19 19 17 16 18 20 18 12 4 1 4 6 4 4 10 14 15 10 9 12 12 19 36 40 34 29 26 20 15 14 12 8 4 353 327 295 270 254 253 254 248 244 244 243 243 244 244 245 247 245 240 239 237 235 240 244 241 233 232 233 230 226 227
0 16 19 10 357 354 1 6 12 20 25 26 26 27 31 37 40 39 34 30 28 27 24 21 17 14 14 16 18 19 16 14 13 13 12 12 17 22 23 23 25 28 27 33 42 41 35 28 24 21 22 23 20 16 15 18 20 23 35 65 71 69 177 225 242 237 236 240 242 241 240 237 235 236 236 232 233 237 236 231 232 234 233 231 233
348 7 18 15 1 347 345 353 358 3 12 20 22 21 21 24 31 36 36 33 32 31 29 26 22 18 15 14 15 17 18 19 20 20 21 24 30 34 34 33 35 39 43 46 46 43 40 35 27 22 22 22 18 16 17 20 21 22 27 35 40 44 48 50 59 152 199 211 209 205 209 210 211 217 221 218 218 223 228 232 239 244 245 244 242
334 344 355 4 3 353 342 341 346 350 356 6 14 16 14 12 13 16 21 27 31 34 33 29 25 23 21 18 17 18 20 21 23 25 28 32 38 43 44 42 41 43 46 47 43 37 37 39 35 28 26 23 19 16 17 19 21 23 24 24 26 31 38 48 65 82 92 97 104 115 123 129 142 154 158 164 174 184 202 230 249 254 258 259 255
320 331 336 341 354 360 352 338 336 341 346 351 359 8 10 9 7 3 2 10 18 23 26 26 25 24 23 22 20 22 24 27 27 27 30 34 38 43 46 47 46 47 48 47 41 33 31 33 33 31 30 27 23 20 19 18 19 22 24 24 26 32 40 47 56 61 63 68 72 74 75 78 82 84 81 79 80 82 80 53 354 313 307 312 304
300 317 333 328 336 356 357 341 334 341 347 348 349 358 4 6 6 2 358 360 5 10 16 20 21 22 22 22 21 22 26 30 31 32 33 35 36 40 43 43 41 40 41 40 38 35 33 30 28 28 29 29 28 26 24 24 23 23 24 25 28 35 42 47 49 50 53 56 58 58 60 61 63 63 63 63 63 58 55 50 35 12 356 343 326
285 280 307 320 335 360 353 336 336 351 358 355 348 349 355 358 1 1 358 354 354 360 7 13 17 20 23 23 22 21 23 28 31 33 36 37 38 41 43 41 36 33 34 34 33 34 34 32 29 28 28 29 31 30 30 31 31 30 31 31 32 37 42 47 48 48 51 54 55 55 55 56 56 57 58 58 58 53 48 44 36 23 10 355 337
287 266 269 303 340 13 350 329 333 355 2 359 352 349 347 346 351 356 356 351 345 349 357 5 9 15 19 21 21 19 19 23 29 32 34 37 40 44 46 45 41 37 35 33 33 34 33 32 31 31 30 30 31 32 34 35 36 37 39 40 40 42 44 48 50 49 50 51 52 51 52 52 52 53 53 54 54 50 46 41 32 21 12 359 348
290 264 251 268 270 321 353 334 324 339 356 357 350 342 337 335 338 346 352 353 348 345 350 357 2 7 10 12 14 13 13 17 23 27 28 31 36 40 42 42 42 41 38 35 35 36 35 33 33 33 33 32 33 34 35 36 37 39 40 41 43 44 46 48 50 49 48 47 46 46 46 48 49 48 47 48 47 43 41 41 35 24 19 14 8
286 267 250 253 258 266 329 333 321 322 342 352 349 340 332 329 333 339 346 351 352 350 349 350 354 358 1 2 5 6 8 13 18 19 19 23 28 32 34 35 36 36 35 33 33 32 31 31 31 32 32 32 32 33 34 35 37 39 40 40 40 40 40 41 42 43 43 42 41 41 41 42 43 42 40 39 38 34 31 33 33 27 23 20 16
279 280 261 254 262 276 298 313 316 319 332 342 345 342 335 331 331 334 338 342 345 347 347 345 344 347 350 352 356 359 2 8 13 13 12 15 18 21 24 27 28 28 28 28 27 26 25 24 24 24 25 26 26 27 29 30 32 34 35 37 38 37 36 36 36 36 37 36 36 37 39 38 37 35 33 32 32 30 28 29 31 30 27 23 18
264 282 276 263 261 271 283 292 297 307 318 324 329 334 335 334 329 325 326 329 331 332 336 338 339 339 339 340 346 350 353 356 1 4 6 8 8 10 13 15 16 17 18 18 19 19 19 17 16 16 16 16 16 17 19 20 23 26 29 32 36 36 35 34 33 31 31 30 30 33 35 34 31 29 28 28 30 31 32 33 33 32 29 25 21
249 269 279 273 263 261 271 281 285 289 294 298 304 312 316 321 322 317 314 316 319 320 322 327 333 335 334 331 332 336 339 342 347 351 354 356 358 359 1 2 3 4 4 5 6 7 8 9 9 8 8 8 8 7 7 8 10 13 17 21 27 31 32 32 31 29 27 27 28 29 29 29 28 28 28 28 29 31 34 34 35 34 30 25 22
242 257 273 276 267 260 262 270 279 286 289 291 295 298 301 305 310 311 309 309 312 313 315 320 325 329 329 326 322 322 324 326 330 334 339 342 345 347 348 348 349 351 351 351 352 354 355 357 358 359 1 2 2 360 359 358 358 359 3 7 12 18 24 27 28 27 27 27 28 27 24 24 25 26 28 27 27 30 34 34 33 32 28 22 18
239 249 262 271 272 267 263 264 273 284 290 292 291 291 293 297 301 304 306 306 308 310 311 314 318 321 322 322 319 315 314 314 314 316 321 325 329 333 336 338 339 339 339 339 339 340 342 343 345 347 349 352 354 354 353 351 349 348 350 354 355 359 6 13 17 19 18 20 24 22 19 19 20 22 25 25 24 26 31 32 30 29 27 21 18
236 242 253 263 270 273 270 269 272 278 286 291 291 290 292 295 296 299 301 301 302 304 306 309 312 312 313 316 316 313 313 312 310 309 310 312 315 319 323 327 330 330 330 330 329 328 330 331 333 335 336 339 345 348 347 344 343 343 343 343 344 346 350 353 357 1 3 4 8 10 10 14 16 15 16 20 21 21 25 27 27 27 25 21 18
233 237 245 253 260 268 275 277 276 276 280 286 290 292 295 297 300 302 302 301 300 299 299 301 304 305 307 309 310 310 311 311 309 309 308 306 307 310 311 315 319 321 323 324 323 321 321 322 322 324 326 328 333 339 341 340 337 337 338 339 339 339 341 340 339 340 342 344 349 354 357 3 8 8 7 10 13 16 20 24 26 27 25 21 19
230 233 241 248 255 263 270 278 283 284 283 284 286 289 292 295 299 303 304 305 306 303 300 299 299 299 300 303 304 305 307 307 306 307 308 306 307 307 306 305 308 311 314 317 318 316 316 316 316 317 318 319 324 330 335 335 333 331 333 337 337 336 335 333 330 328 325 323 330 338 341 345 353 358 357 357 0 6 11 18 22 22 21 20 19
229 231 237 245 252 258 264 272 282 290 295 297 297 298 299 299 299 301 305 309 311 310 308 306 303 300 298 299 299 300 302 302 301 302 303 303 304 305 302 301 302 303 305 309 311 311 312 312 312 312 313 313 316 321 326 329 328 326 326 329 332 334 333 331 327 324 319 313 312 319 324 329 337 343 343 343 344 349 357 7 13 13 15 20 22
232 231 234 241 247 253 258 265 274 285 296 305 310 311 313 311 309 310 313 313 313 314 315 314 312 309 306 302 300 299 298 297 297 299 300 301 302 301 299 297 297 297 298 301 304 306 307 308 308 309 310 309 310 313 318 322 322 319 319 322 326 329 331 330 326 323 319 313 307 304 304 310 318 322 324 327 329 332 337 340 344 354 6 21 27
234 232 233 238 243 247 253 258 266 276 287 298 306 310 313 314 314 318 321 319 318 319 320 320 319 318 315 312 309 305 301 298 296 296 297 299 301 300 297 294 293 293 294 297 298 300 302 304 305 305 305 306 307 308 311 315 316 312 311 314 318 322 326 327 325 321 318 313 308 300 292 294 301 303 304 308 313 319 324 326 327 339 357 18 30
240 238 237 239 242 245 250 255 261 268 277 286 293 298 304 308 310 313 317 318 319 320 320 320 320 319 318 317 316 313 309 305 302 298 296 297 299 299 297 294 292 290 290 291 293 295 296 299 302 303 302 302 303 304 306 309 311 308 304 305 309 313 316 318 319 317 314 309 304 297 290 288 290 292 293 296 297 302 309 315 318 326 343 6 27